Time,TemperatureF,DewpointF,PressureIn,WindDirection,WindDirectionDegrees,WindSpeedMPH,WindSpeedGustMPH,Humidity,HourlyPrecipIn,Conditions,Clouds,dailyrainin,SoftwareType,DateUTC
2013-02-04 00:11:00,14.4,12.0,30.10,West,269,0.0,2.0,88,0.00,,,0.00,weatherlink.com 1.10,2013-02-04 06:11:00,
2013-02-04 00:26:00,14.4,12.0,30.10,West,269,0.0,2.0,89,0.00,,,0.00,weatherlink.com 1.10,2013-02-04 06:26:00,
2013-02-04 00:41:00,14.3,12.0,30.09,West,268,0.0,1.0,89,0.00,,,0.00,weatherlink.com 1.10,2013-02-04 06:41:00,
2013-02-04 00:56:00,14.3,12.0,30.09,West,269,0.0,2.0,89,0.00,,,0.00,weatherlink.com 1.10,2013-02-04 06:56:00,
2013-02-04 01:11:00,14.3,12.0,30.08,West,269,0.0,0.0,89,0.00,,,0.00,weatherlink.com 1.10,2013-02-04 07:11:00,
2013-02-04 01:26:00,14.3,12.0,30.08,West,269,0.0,0.0,89,0.00,,,0.00,weatherlink.com 1.10,2013-02-04 07:26:00,
2013-02-04 01:41:00,14.2,12.0,30.08,West,268,0.0,2.0,90,0.00,,,0.00,weatherlink.com 1.10,2013-02-04 07:41:00,
2013-02-04 01:56:00,14.2,12.0,30.07,West,269,1.0,2.0,90,0.00,,,0.00,weatherlink.com 1.10,2013-02-04 07:56:00,
2013-02-04 02:11:00,14.1,12.0,30.07,West,268,1.0,2.0,90,0.00,,,0.00,weatherlink.com 1.10,2013-02-04 08:11:00,
2013-02-04 02:26:00,14.1,12.0,30.06,NE,55,2.0,3.0,90,0.00,,,0.00,weatherlink.com 1.10,2013-02-04 08:26:00,
2013-02-04 02:41:00,14.0,12.0,30.05,ENE,71,3.0,4.0,90,0.00,,,0.00,weatherlink.com 1.10,2013-02-04 08:41:00,
2013-02-04 02:56:00,13.6,11.0,30.05,ENE,67,2.0,5.0,89,0.00,,,0.00,weatherlink.com 1.10,2013-02-04 08:56:00,
2013-02-04 03:11:00,13.5,11.0,30.04,ENE,67,2.0,4.0,89,0.00,,,0.00,weatherlink.com 1.10,2013-02-04 09:11:00,
2013-02-04 03:27:00,13.4,11.0,30.04,ENE,67,2.0,4.0,89,0.00,,,0.00,weatherlink.com 1.10,2013-02-04 09:27:00,
2013-02-04 03:42:00,13.4,11.0,30.03,ENE,67,3.0,4.0,90,0.00,,,0.00,weatherlink.com 1.10,2013-02-04 09:42:00,
2013-02-04 03:57:00,13.4,11.0,30.03,ENE,67,1.0,3.0,90,0.00,,,0.00,weatherlink.com 1.10,2013-02-04 09:57:00,
2013-02-04 04:12:00,13.3,11.0,30.04,ENE,67,1.0,4.0,90,0.00,,,0.00,weatherlink.com 1.10,2013-02-04 10:12:00,
2013-02-04 04:27:00,13.4,11.0,30.04,ENE,67,1.0,3.0,90,0.00,,,0.00,weatherlink.com 1.10,2013-02-04 10:27:00,
2013-02-04 04:42:00,13.4,11.0,30.04,ENE,67,1.0,2.0,90,0.00,,,0.00,weatherlink.com 1.10,2013-02-04 10:42:00,
2013-02-04 04:57:00,13.4,11.0,30.04,ENE,67,0.0,3.0,90,0.00,,,0.00,weatherlink.com 1.10,2013-02-04 10:57:00,
2013-02-04 05:12:00,13.5,11.0,30.04,ENE,67,1.0,2.0,91,0.00,,,0.00,weatherlink.com 1.10,2013-02-04 11:12:00,
2013-02-04 05:27:00,13.5,11.0,30.04,ENE,67,2.0,3.0,91,0.00,,,0.00,weatherlink.com 1.10,2013-02-04 11:27:00,
2013-02-04 05:42:00,13.4,11.0,30.04,ENE,67,2.0,3.0,90,0.00,,,0.00,weatherlink.com 1.10,2013-02-04 11:42:00,
2013-02-04 05:57:00,13.2,11.0,30.03,ENE,66,3.0,6.0,90,0.00,,,0.00,weatherlink.com 1.10,2013-02-04 11:57:00,
2013-02-04 06:12:00,12.8,11.0,30.03,ENE,72,3.0,7.0,90,0.00,,,0.00,weatherlink.com 1.10,2013-02-04 12:12:00,
2013-02-04 06:27:00,12.7,10.0,30.04,North,360,5.0,5.0,90,0.00,,,0.00,weatherlink.com 1.10,2013-02-04 12:27:00,
2013-02-04 06:42:00,12.5,10.0,30.04,NNW,344,4.0,6.0,89,0.00,,,0.00,weatherlink.com 1.10,2013-02-04 12:42:00,
2013-02-04 07:12:00,12.2,10.0,30.04,NNE,15,1.0,6.0,89,0.00,,,0.00,weatherlink.com 1.10,2013-02-04 13:12:00,
2013-02-04 07:27:00,12.2,10.0,30.04,NE,42,5.0,6.0,89,0.00,,,0.00,weatherlink.com 1.10,2013-02-04 13:27:00,
2013-02-04 07:42:00,12.2,10.0,30.03,NE,38,2.0,6.0,89,0.00,,,0.00,weatherlink.com 1.10,2013-02-04 13:42:00,
2013-02-04 07:57:00,12.4,10.0,30.03,ENE,68,4.0,6.0,89,0.00,,,0.00,weatherlink.com 1.10,2013-02-04 13:57:00,
2013-02-04 08:12:00,12.6,10.0,30.03,NE,43,3.0,7.0,89,0.00,,,0.00,weatherlink.com 1.10,2013-02-04 14:12:00,
2013-02-04 08:27:00,13.0,10.0,30.03,NE,34,4.0,6.0,89,0.00,,,0.00,weatherlink.com 1.10,2013-02-04 14:27:00,
2013-02-04 08:42:00,13.0,10.0,30.04,North,355,4.0,8.0,88,0.00,,,0.00,weatherlink.com 1.10,2013-02-04 14:42:00,
2013-02-04 08:57:00,13.2,10.0,30.03,NE,34,3.0,5.0,88,0.00,,,0.00,weatherlink.com 1.10,2013-02-04 14:57:00,
2013-02-04 09:12:00,13.5,11.0,30.03,NE,34,2.0,5.0,88,0.00,,,0.00,weatherlink.com 1.10,2013-02-04 15:12:00,
2013-02-04 09:27:00,13.8,11.0,30.03,NNE,33,2.0,8.0,87,0.00,,,0.00,weatherlink.com 1.10,2013-02-04 15:27:00,
2013-02-04 09:42:00,14.3,11.0,30.03,North,350,3.0,7.0,87,0.00,,,0.00,weatherlink.com 1.10,2013-02-04 15:42:00,
2013-02-04 09:57:00,14.1,11.0,30.03,North,355,5.0,8.0,86,0.00,,,0.00,weatherlink.com 1.10,2013-02-04 15:57:00,
2013-02-04 10:12:00,14.2,11.0,30.04,NNW,342,5.0,8.0,86,0.00,,,0.00,weatherlink.com 1.10,2013-02-04 16:12:00,
2013-02-04 10:27:00,14.0,11.0,30.04,NNW,347,5.0,9.0,86,0.00,,,0.00,weatherlink.com 1.10,2013-02-04 16:27:00,
2013-02-04 10:42:00,14.2,11.0,30.04,NW,311,4.0,8.0,86,0.00,,,0.00,weatherlink.com 1.10,2013-02-04 16:42:00,
2013-02-04 10:57:00,14.4,11.0,30.04,NNE,22,5.0,7.0,85,0.00,,,0.00,weatherlink.com 1.10,2013-02-04 16:57:00,
2013-02-04 11:12:00,14.9,11.0,30.04,NNW,334,5.0,7.0,84,0.00,,,0.00,weatherlink.com 1.10,2013-02-04 17:12:00,
2013-02-04 11:27:00,15.1,11.0,30.04,NNW,345,3.0,8.0,84,0.00,,,0.00,weatherlink.com 1.10,2013-02-04 17:27:00,
2013-02-04 11:42:00,15.5,11.0,30.04,NNW,342,6.0,8.0,83,0.00,,,0.00,weatherlink.com 1.10,2013-02-04 17:42:00,
2013-02-04 11:58:00,15.3,11.0,30.04,North,355,5.0,9.0,82,0.00,,,0.00,weatherlink.com 1.10,2013-02-04 17:58:00,
2013-02-04 12:13:00,15.6,11.0,30.04,NNW,333,4.0,7.0,82,0.00,,,0.00,weatherlink.com 1.10,2013-02-04 18:13:00,
2013-02-04 12:29:00,16.1,12.0,30.03,NNE,19,4.0,8.0,82,0.00,,,0.00,weatherlink.com 1.10,2013-02-04 18:29:00,
2013-02-04 13:28:00,17.3,13.0,30.03,NNW,342,2.0,7.0,83,0.00,,,0.00,weatherlink.com 1.10,2013-02-04 19:28:00,
2013-02-04 13:43:00,17.0,12.0,30.04,West,277,3.0,9.0,82,0.00,,,0.00,weatherlink.com 1.10,2013-02-04 19:43:00,
2013-02-04 13:58:00,16.9,12.0,30.04,NW,319,1.0,5.0,81,0.00,,,0.00,weatherlink.com 1.10,2013-02-04 19:58:00,
2013-02-04 14:13:00,17.3,12.0,30.03,WNW,292,1.0,5.0,80,0.00,,,0.00,weatherlink.com 1.10,2013-02-04 20:13:00,
2013-02-04 14:28:00,16.7,11.0,30.02,NNW,340,2.0,7.0,79,0.00,,,0.00,weatherlink.com 1.10,2013-02-04 20:28:00,
2013-02-04 14:43:00,16.9,11.0,30.01,North,349,3.0,8.0,77,0.00,,,0.00,weatherlink.com 1.10,2013-02-04 20:43:00,
2013-02-04 14:58:00,17.6,12.0,30.01,NW,317,2.0,4.0,77,0.00,,,0.00,weatherlink.com 1.10,2013-02-04 20:58:00,
2013-02-04 15:43:00,17.2,10.0,30.02,NW,325,2.0,5.0,74,0.00,,,0.00,weatherlink.com 1.10,2013-02-04 21:43:00,
2013-02-04 15:58:00,16.8,10.0,30.02,NNW,330,4.0,5.0,73,0.00,,,0.00,weatherlink.com 1.10,2013-02-04 21:58:00,
2013-02-04 16:13:00,16.6,9.0,30.02,NW,305,2.0,5.0,71,0.00,,,0.00,weatherlink.com 1.10,2013-02-04 22:13:00,
2013-02-04 16:28:00,15.3,7.0,30.02,WNW,294,5.0,6.0,69,0.00,,,0.00,weatherlink.com 1.10,2013-02-04 22:28:00,
2013-02-04 16:43:00,14.1,6.0,30.03,WNW,299,1.0,6.0,69,0.00,,,0.00,weatherlink.com 1.10,2013-02-04 22:43:00,
2013-02-04 16:58:00,13.4,5.0,30.04,NNW,327,2.0,5.0,68,0.00,,,0.00,weatherlink.com 1.10,2013-02-04 22:58:00,
2013-02-04 17:13:00,12.7,4.0,30.04,NW,311,3.0,4.0,68,0.00,,,0.00,weatherlink.com 1.10,2013-02-04 23:13:00,
2013-02-04 17:28:00,11.9,4.0,30.04,WNW,285,1.0,5.0,69,0.00,,,0.00,weatherlink.com 1.10,2013-02-04 23:28:00,
2013-02-04 17:43:00,11.2,3.0,30.04,WNW,285,0.0,3.0,69,0.00,,,0.00,weatherlink.com 1.10,2013-02-04 23:43:00,
2013-02-04 17:58:00,10.2,3.0,30.05,WNW,285,0.0,1.0,71,0.00,,,0.00,weatherlink.com 1.10,2013-02-04 23:58:00,
2013-02-04 18:13:00,9.4,2.0,30.04,WNW,285,0.0,1.0,72,0.00,,,0.00,weatherlink.com 1.10,2013-02-05 00:13:00,
2013-02-04 18:28:00,9.0,2.0,30.05,WNW,285,1.0,2.0,73,0.00,,,0.00,weatherlink.com 1.10,2013-02-05 00:28:00,
2013-02-04 18:43:00,8.7,2.0,30.05,WNW,285,0.0,0.0,74,0.00,,,0.00,weatherlink.com 1.10,2013-02-05 00:43:00,
2013-02-04 18:58:00,8.3,2.0,30.05,WNW,285,0.0,0.0,74,0.00,,,0.00,weatherlink.com 1.10,2013-02-05 00:58:00,
2013-02-04 19:13:00,8.3,2.0,30.05,WNW,285,0.0,1.0,75,0.00,,,0.00,weatherlink.com 1.10,2013-02-05 01:13:00,
2013-02-04 19:28:00,8.0,2.0,30.05,WNW,285,0.0,0.0,76,0.00,,,0.00,weatherlink.com 1.10,2013-02-05 01:28:00,
2013-02-04 19:43:00,7.6,2.0,30.07,WNW,285,0.0,3.0,77,0.00,,,0.00,weatherlink.com 1.10,2013-02-05 01:43:00,
2013-02-04 19:58:00,8.1,2.0,30.07,WNW,285,0.0,1.0,77,0.00,,,0.00,weatherlink.com 1.10,2013-02-05 01:58:00,
2013-02-04 20:13:00,8.1,3.0,30.08,WNW,285,0.0,1.0,78,0.00,,,0.00,weatherlink.com 1.10,2013-02-05 02:13:00,
2013-02-04 20:28:00,7.7,2.0,30.08,WNW,285,0.0,0.0,78,0.00,,,0.00,weatherlink.com 1.10,2013-02-05 02:28:00,
2013-02-04 20:43:00,7.4,2.0,30.07,WNW,285,0.0,0.0,79,0.00,,,0.00,weatherlink.com 1.10,2013-02-05 02:43:00,
2013-02-04 20:58:00,7.4,3.0,30.07,WNW,285,0.0,0.0,80,0.00,,,0.00,weatherlink.com 1.10,2013-02-05 02:58:00,
2013-02-04 21:13:00,7.2,2.0,30.06,WNW,285,0.0,0.0,80,0.00,,,0.00,weatherlink.com 1.10,2013-02-05 03:13:00,
2013-02-04 21:28:00,7.0,2.0,30.05,WNW,285,0.0,0.0,81,0.00,,,0.00,weatherlink.com 1.10,2013-02-05 03:28:00,
2013-02-04 21:59:00,6.2,2.0,30.05,WNW,285,0.0,1.0,82,0.00,,,0.00,weatherlink.com 1.10,2013-02-05 03:59:00,
2013-02-04 22:14:00,6.2,2.0,30.05,WNW,285,0.0,1.0,82,0.00,,,0.00,weatherlink.com 1.10,2013-02-05 04:14:00,
2013-02-04 22:29:00,6.1,2.0,30.05,WNW,285,0.0,0.0,82,0.00,,,0.00,weatherlink.com 1.10,2013-02-05 04:29:00,
2013-02-04 22:44:00,5.5,1.0,30.05,WNW,285,0.0,0.0,83,0.00,,,0.00,weatherlink.com 1.10,2013-02-05 04:44:00,
2013-02-04 22:59:00,5.0,1.0,30.04,WNW,285,0.0,0.0,83,0.00,,,0.00,weatherlink.com 1.10,2013-02-05 04:59:00,
2013-02-04 23:14:00,5.3,2.0,30.04,WNW,285,0.0,0.0,84,0.00,,,0.00,weatherlink.com 1.10,2013-02-05 05:14:00,
2013-02-04 23:30:00,5.1,1.0,30.04,WNW,285,0.0,0.0,84,0.00,,,0.00,weatherlink.com 1.10,2013-02-05 05:30:00,
2013-02-04 23:44:00,5.0,4.0,30.04,WNW,285,0.0,0.0,95,0.00,,,0.00,weatherlink.com 1.10,2013-02-05 05:44:00,
2013-02-04 23:59:00,4.4,1.0,30.04,WNW,285,0.0,0.0,85,0.00,,,0.00,weatherlink.com 1.10,2013-02-05 05:59:00,